This demonstration page uses our WeatherBlox Daily Observations layout. Learn more.

Left ArrowRight Arrow

39.51506, -84.39828

Hourly Observations for April 13, 2017

Temp ( °F °C ) Dew Point ( °F °C ) Humidity (%) Winds ( mph kmh ) Pressure ( in mb ) Visibility ( mi km ) Precip ( " mm )
12:15 am 00:15 Clear 49 9.6 42 5.5 76 76 Calm 30.36 1028 10 16 0.00 0.00
12:35 am 00:35 Clear 49 9.6 41 5.1 74 74 Calm 30.36 1028 10 16 0.00 0.00
12:55 am 00:55 Clear 49 9.6 42 5.6 76 76 Calm 30.39 1029 10 16 0.00 0.00
1:15 am 01:15 Clear 49 9.6 41 5.2 74 74 Calm 30.39 1029 10 16 0.00 0.00
1:35 am 01:35 Clear 49 9.4 41 5.2 75 75 Calm 30.39 1029 10 16 0.00 0.00
1:55 am 01:55 Clear 49 9.6 42 5.8 77 77 Calm 30.39 1029 10 16 0.00 0.00
2:15 am 02:15 Clear 49 9.6 42 5.4 75 75 NNE 3 6 30.36 1028 10 16 0.00 0.00
2:35 am 02:35 Clear 47 8.2 40 4.4 77 77 Calm 30.36 1028 10 16 0.00 0.00
2:55 am 02:55 Clear 44 6.8 38 3.5 80 80 Calm 30.39 1029 10 16 0.00 0.00
3:15 am 03:15 Clear 47 8.2 41 4.8 79 79 Calm 30.36 1028 10 16 0.00 0.00
3:35 am 03:35 Clear 46 7.8 40 4.4 79 79 NNE 3 6 30.36 1028 10 16 0.00 0.00
3:55 am 03:55 Clear 44 6.8 38 3.5 80 80 N 3 6 30.39 1029 10 16 0.00 0.00
4:15 am 04:15 Clear 45 7.3 39 3.8 79 79 N 5 7 30.36 1028 N/A 0.00 0.00
4:35 am 04:35 Clear 43 6.2 37 2.8 79 79 N 5 7 30.39 1029 N/A 0.00 0.00
4:55 am 04:55 Clear 44 6.8 38 3.2 78 78 Calm 30.33 1027 N/A 0.00 0.00
5:15 am 05:15 Clear 43 6.1 37 2.9 80 80 N 3 6 30.36 1028 N/A 0.00 0.00
5:35 am 05:35 Clear 42 5.6 37 2.5 81 81 Calm 30.36 1028 N/A 0.00 0.00
5:55 am 05:55 Clear 43 6.2 38 3.1 81 81 Calm 30.39 1029 10 16 0.00 0.00
6:15 am 06:15 Clear 42 5.8 37 2.7 81 81 Calm 30.39 1029 N/A 0.00 0.00
6:35 am 06:35 Clear 41 5.1 35 1.7 79 79 Calm 30.39 1029 N/A 0.00 0.00
6:55 am 06:55 Clear 41 5.1 36 2.1 81 81 Calm 30.39 1029 N/A 0.00 0.00
7:15 am 07:15 Sunny 42 5.5 36 2.1 79 79 Calm 30.39 1029 N/A 0.00 0.00
7:35 am 07:35 Sunny 42 5.5 36 2.3 80 80 Calm 30.42 1030 N/A 0.00 0.00
7:55 am 07:55 Sunny 43 6 37 2.9 81 81 Calm 30.42 1030 N/A 0.00 0.00
8:15 am 08:15 Sunny 47 8.2 41 5 80 80 Calm 30.39 1029 N/A 0.00 0.00
8:35 am 08:35 Sunny 49 9.6 41 5.1 74 74 Calm 30.39 1029 N/A 0.00 0.00
8:55 am 08:55 Sunny 55 12.5 42 5.8 64 64 NNE 5 7 30.39 1029 10 16 0.00 0.00
9:15 am 09:15 Sunny 55 12.5 41 5 61 61 NNE 3 6 30.39 1029 10 16 0.00 0.00
9:35 am 09:35 Sunny 56 13.6 42 5.3 58 58 Calm 30.36 1028 10 16 0.00 0.00
9:55 am 09:55 Sunny 58 14.3 42 5.3 55 55 Calm 30.36 1028 10 16 0.00 0.00
10:15 am 10:15 Sunny 61 16 40 4.4 46 46 NE 3 6 30.39 1029 10 16 0.00 0.00
10:35 am 10:35 Sunny 62 16.7 40 4.3 44 44 ESE 6 9 30.39 1029 10 16 0.00 0.00
10:55 am 10:55 Sunny 62 16.6 38 3.5 42 42 ESE 6 9 30.39 1029 10 16 0.00 0.00
11:15 am 11:15 Sunny 64 18 37 2.7 36 36 ESE 6 9 30.36 1028 10 16 0.00 0.00
11:35 am 11:35 Sunny 68 19.8 39 3.9 35 35 SSE 3 6 30.36 1028 10 16 0.00 0.00
11:55 am 11:55 Sunny 69 20.8 38 3.6 32 32 SE 7 11 30.33 1027 10 16 0.00 0.00
12:15 pm 12:15 Sunny 69 20.8 37 2.7 30 30 Calm 30.33 1027 10 16 0.00 0.00
12:35 pm 12:35 Sunny 69 20.8 38 3.6 32 32 SSE 10 17 30.33 1027 10 16 0.00 0.00
12:55 pm 12:55 Sunny 69 20.8 38 3.2 31 31 ESE 6 9 30.30 1026 10 16 0.00 0.00
1:15 pm 13:15 Sunny 69 20.8 34 1.1 27 27 ESE 8 13 30.30 1026 10 16 0.00 0.00
1:35 pm 13:35 Sunny 72 22.2 38 3.2 29 29 SSE 6 9 30.30 1026 10 16 0.00 0.00
1:55 pm 13:55 Sunny N/A N/A N/A SE 7 11 N/A 10 16 0.00 0.00
2:15 pm 14:15 Sunny 74 23.4 35 1.9 24 24 SSE 8 13 30.27 1025 10 16 0.00 0.00
2:35 pm 14:35 Sunny 72 22.3 35 1.8 26 26 E 8 13 30.27 1025 10 16 0.00 0.00
2:55 pm 14:55 Sunny 74 23.6 33 0.5 22 22 ESE 9 15 30.27 1025 10 16 0.00 0.00
3:15 pm 15:15 Sunny 74 23.6 30 -1.2 19 19 SE 6 9 30.27 1025 10 16 0.00 0.00
3:35 pm 15:35 Sunny 74 23.6 29 -1.4 19 19 Calm 30.24 1024 10 16 0.00 0.00
3:55 pm 15:55 Sunny 74 23.6 29 -1.5 19 19 SE 5 7 30.24 1024 10 16 0.00 0.00
4:15 pm 16:15 Sunny 74 23.6 30 -1.1 19 19 ENE 3 6 30.24 1024 10 16 0.00 0.00
4:35 pm 16:35 Partly Cloudy 74 23.6 31 -0.4 20 20 E 6 9 30.21 1023 10 16 0.00 0.00
4:55 pm 16:55 Mostly Cloudy 74 23.6 30 -1.3 19 19 ESE 7 11 30.21 1023 10 16 0.00 0.00
5:15 pm 17:15 Partly Cloudy 74 23.6 29 -1.8 18 18 E 7 11 30.21 1023 10 16 0.00 0.00
5:35 pm 17:35 Mostly Cloudy 74 23.6 27 -2.6 17 17 ESE 6 9 30.21 1023 10 16 0.00 0.00
5:55 pm 17:55 Cloudy 74 23.6 28 -2.5 17 17 E 6 9 30.21 1023 10 16 0.00 0.00
6:15 pm 18:15 Mostly Cloudy 74 23.6 27 -3 17 17 E 7 11 30.21 1023 10 16 0.00 0.00
6:35 pm 18:35 Mostly Cloudy 74 23.6 26 -3.2 17 17 SE 3 6 30.21 1023 10 16 0.00 0.00
6:55 pm 18:55 Mostly Cloudy 74 23.6 31 -0.5 20 20 ENE 7 11 30.21 1023 10 16 0.00 0.00
7:15 pm 19:15 Sunny 71 21.7 34 1.3 26 26 ENE 7 11 30.18 1022 10 16 0.00 0.00
7:35 pm 19:35 Partly Cloudy 69 20.8 35 1.4 28 28 NE 6 9 30.21 1023 10 16 0.00 0.00
7:55 pm 19:55 Mostly Cloudy 69 20.8 37 2.5 30 30 ENE 5 7 30.21 1023 10 16 0.00 0.00
8:15 pm 20:15 Mostly Cloudy 69 20.3 37 2.8 32 32 NE 5 7 30.21 1023 10 16 0.00 0.00
8:35 pm 20:35 Partly Cloudy 64 18 36 2.4 35 35 NE 6 9 30.21 1023 10 16 0.00 0.00
8:55 pm 20:55 Partly Cloudy 65 18.6 35 1.9 33 33 NNE 5 7 30.21 1023 10 16 0.00 0.00
9:15 pm 21:15 Partly Cloudy 63 17.3 38 3.2 39 39 NE 3 6 30.24 1024 10 16 0.00 0.00
9:35 pm 21:35 Partly Cloudy 64 18 36 2.1 35 35 NE 3 6 30.21 1023 10 16 0.00 0.00
9:55 pm 21:55 Partly Cloudy 61 16 40 4.4 46 46 NNE 5 7 30.24 1024 10 16 0.00 0.00
10:15 pm 22:15 Partly Cloudy 62 16.6 39 4.1 44 44 NE 5 7 30.24 1024 10 16 0.00 0.00
10:35 pm 22:35 Partly Cloudy 60 15.6 40 4.4 47 47 N 3 6 30.24 1024 10 16 0.00 0.00
10:55 pm 22:55 Clear 59 15.1 42 5.3 52 52 NNE 3 6 30.24 1024 10 16 0.00 0.00
11:15 pm 23:15 Clear 55 12.9 43 6 63 63 N 3 6 30.24 1024 10 16 0.00 0.00
11:35 pm 23:35 Clear 60 15.3 40 4.4 48 48 Calm 30.24 1024 10 16 0.00 0.00
11:55 pm 23:55 Clear 59 15.2 43 6.1 55 55 NNE 3 6 30.27 1025 10 16 0.00 0.00

Powered by AerisWeather